Regional Weather Roundup
Issued by NWS

Home | Current Version | Previous Version | Text Only | Print | Product List | Glossary Off
Versions: 1 2 3 4 5 6 7 8 9 10 11 12 13 14 15 16 17 18 19 20 21 22 23 24 25 26 27 28 29 30 31 32 33 34 35 36 37 38 39 40 41 42 43 44 45 46 47 48 49 50

599
ASUS45 KSLC 221310
RWRUT

UTAH REGIONAL WEATHER ROUNDUP
NATIONAL WEATHER SERVICE SALT LAKE CITY UT
600 AM MST WED FEB 22 2017

UTZ001>011-023>025-221400-

NORTHERN UTAH

CITY           SKY/WX    TMP DP  RH WIND       PRES   REMARKS
BRIGHAM CITY     N/A     37  32  83 CALM      30.02F
HILL AFB       FOG       32  32 100 SE5       30.00F VSB 1   WCI  27
LOGAN          CLOUDY    35  32  88 N5        30.00F WCI  31
OGDEN          CLOUDY    34  33  96 SE5       30.00F WCI  30
SALT LAKE CITY CLOUDY    36  34  92 SE6       30.01F WCI  31
TOOELE VALLEY  CLOUDY    34  32  93 S6        30.01F WCI  29
WENDOVER       CLOUDY    36  28  75 CALM      30.01F
HEBER CITY     LGT SNOW  30  30 100 CALM      29.98F
WEST JORDAN    CLOUDY    36  36 100 CALM      30.02F

$$

UTZ011>015-024>027-221400-

CENTRAL/NORTHEAST UTAH

CITY           SKY/WX    TMP DP  RH WIND       PRES   REMARKS
PROVO AIRPORT  LGT SNOW N/A N/A N/A SE3       30.04F
MOAB/CANYONLAN PTCLDY    42  33  70 SW12      29.94F
DELTA          CLOUDY    32  32 100 N8        30.01F WCI  25
PRICE          MOCLDY    36  30  79 NE5       29.93F WCI  32
RICHFIELD      PTCLDY    45  28  53 SW13      29.97F
ROOSEVELT      CLOUDY    37  32  81 W13       29.95F WCI  29
VERNAL         CLOUDY    37  32  82 NE6       29.94R WCI  32

$$

UTZ013>016-019>022-027-221400-

SOUTHERN UTAH

CITY           SKY/WX    TMP DP  RH WIND       PRES   REMARKS
BRYCE CANYON   PTCLDY    32  24  72 SW6       30.04F WCI  26
CEDAR CITY     CLEAR     39  35  86 SW6       29.98F WCI  35
MILFORD        CLOUDY    40  35  83 S10       29.98F WCI  33
ST GEORGE      CLOUDY    51  42  71 SE8       29.98F
HANKSVILLE     CLEAR     46  32  57 W6        29.98S
KANAB          CLEAR     39  37  93 SW3       30.07F
BLANDING       MOCLDY    40  37  87 CALM      30.13F

$$

REGIONAL REPORTS     COLORADO/ARIZONA

CITY           SKY/WX    TMP DP  RH WIND       PRES   REMARKS
CRAIG, CO      CLOUDY    32  26  78 W3        29.98F
GRAND JUNCTION PTCLDY    38  32  79 NE3       29.96S
RIFLE, CO      PTCLDY    44  31  60 VRB5      29.95R
MONTROSE, CO   PTCLDY    49  25  39 CALM      30.02F
CORTEZ, CO     MOCLDY    36  35  96 VRB3      30.09F
COLORADO CITY    N/A     41  37  87 E3        30.06F
PAGE, AZ       MOCLDY    47  34  60 CALM      30.00F
GRAND CANYON   CLOUDY    41  40  96 S8        30.14S
KINGMAN, AZ    MOCLDY    46  38  73 E7        30.04F
FLAGSTAFF, AZ  CLOUDY    41  38  89 SW6       30.17F

$$

REGIONAL REPORTS    NEVADA/IDAHO/WYOMING

CITY           SKY/WX    TMP DP  RH WIND       PRES   REMARKS
LAS VEGAS, NV  PTCLDY    56  33  42 S18G25    29.91F
ELY, NY        CLOUDY    22  21  96 CALM      29.99S
ELKO, NV       MOCLDY    29  25  85 W3        29.98F
POCATELLO, ID  PTCLDY    32  26  78 SW12      30.01S WCI  23
BURLEY, ID     PTCLDY    33  24  69 W5        30.00F WCI  29
FORT BRIDGER,  FLURRIES  26  25  99 SW5       30.00S WCI  20
EVANSTON, WY   LGT SNOW  24  19  81 CALM      29.98R
ROCK SPRINGS,  CLOUDY    26  23  88 SW10      29.97S WCI  16

$$




USA.gov is the U.S. government's official web portal to all federal, state and local government web resources and services.